Flag for U.S.A. Weather past 2 weeks in Davenport, Iowa, U.S.A.

Now
25 °F

Sunny.


Feels Like: 25 °F
Forecast: 18 / 28 °F
Wind: No wind

Location: Davenport Municipal Airport

Current Time: Jan 30, 2015 at 1:08:26 PM

Latest Report: Jan 30, 2015 at 11:52 AM


Visibility: 10 mi

Pressure: 30.57 "Hg

Humidity: 55%

Dew point: 11 °F

Location of DavenportLocation

Historic Weather in Davenport — Graph

°F

Davenport temperature yesterday

Maximum temperature yesterday: 36 °F (at 12:52 AM)
Minimum temperature yesterday: 24 °F (at 11:52 PM)
Average temperature yesterday: 32 °F

Past Weeks' High & Low Weather Summary

 TemperatureHumidityPressure
High46 °F (Jan 24, 2:52 PM)92% (Jan 16, 7:52 AM)30.60 "Hg (Jan 16, 7:52 AM)
Low10 °F (Jan 26, 2:52 AM)55% (Jan 30, 11:52 AM)29.60 "Hg (Jan 25, 12:52 AM)
Average31 °F79%30.03 "Hg
* Reported Jan 15 11:52 AM — Jan 30 11:52 AM, Davenport, Weather by CustomWeather, © 2014

Note: Actual official high and low records may vary slightly from our data, if they occured in-between our weather recording intervals... More about our weather records

Advertising

Davenport weather history for previous 24 hours

 ConditionsComfort  
Time TempWeatherWind HumidityBarometerVisibility
11:52 AM
Jan 30
25 °FSunny.No wind55%30.57 "Hg10 mi
10:52 AM23 °FSunny.6 mph63%30.58 "Hg10 mi
9:52 AM21 °FSunny.3 mph62%30.60 "Hg10 mi
8:52 AM19 °FSunny.5 mph71%30.58 "Hg10 mi
7:52 AM15 °FSunny.5 mph77%30.58 "Hg10 mi
6:52 AM14 °FClear.6 mph77%30.56 "Hg10 mi
5:52 AM16 °FClear.8 mph74%30.55 "Hg10 mi
4:52 AM17 °FClear.9 mph74%30.54 "Hg10 mi
3:52 AM19 °FClear.8 mph71%30.52 "Hg10 mi
2:52 AM20 °FClear.10 mph71%30.50 "Hg10 mi
1:52 AM21 °FPassing clouds.12 mph74%30.50 "Hg10 mi
12:52 AM23 °FClear.12 mph68%30.47 "Hg10 mi
11:52 PM
Jan 29
24 °FClear.15 mph68%30.46 "Hg10 mi
10:52 PM28 °FOvercast.20 mph64%30.43 "Hg10 mi
9:52 PM29 °FOvercast.20 mph66%30.40 "Hg10 mi
8:52 PM30 °FOvercast.20 mph66%30.38 "Hg10 mi
7:52 PM31 °FOvercast.24 mph67%30.36 "Hg10 mi
6:52 PM32 °FOvercast.21 mph66%30.32 "Hg10 mi
5:52 PM33 °FOvercast.17 mph70%30.29 "Hg10 mi
4:52 PM33 °FOvercast.24 mph72%30.26 "Hg10 mi
3:52 PM34 °FOvercast.21 mph73%30.22 "Hg10 mi
2:52 PM34 °FMostly cloudy.18 mph79%30.17 "Hg10 mi
1:52 PM34 °FMostly cloudy.20 mph79%30.14 "Hg10 mi
Weather by CustomWeather, © 2014

See weather overviewHow to use our weather pages